User: anonymous   Login
Location: Trois-Rivi�res
(46.3500°N, 72.5500°W)
Time: 20:34:47
(UTC-04:00)
Language:

Envisat - Orbit

View from above orbital plane
View from above orbital plane
View from above satellite
View from above satellite

Ground track
Ground track

The orbit data is extracted from the following two-line orbital elements,

1 27386U 02009A   18289.74439988  .00000000  00000-0  13680-4 0  9999
2 27386  98.1744 318.0114 0001166  95.1235  31.1879 14.37931926870995
Epoch (UTC): 16 October 2018 17:51:56
Eccentricity: 0.0001166
inclination: 98.1744°
perigee height: 764 km
apogee height: 766 km
right ascension of ascending node: 318.0114°
argument of perigee: 95.1235°
revolutions per day: 14.37931926
mean anomaly at epoch: 31.1879°
orbit number at epoch: 87099

The dashed part of the orbit path shows where the satellite is in the earth's shadow,  

DLR